TimeEST,TemperatureF,Dew PointF,Humidity,Sea Level PressureIn,VisibilityMPH,Wind Direction,Wind SpeedMPH,Gust SpeedMPH,PrecipitationIn,Events,Conditions,WindDirDegrees,DateUTC
12:15 AM,60.8,42.8,52,30.00,10.0,SW,3.5,-,N/A,,Clear,230,2012-11-04 04:15:00
12:35 AM,60.8,42.8,52,30.00,10.0,WSW,3.5,-,N/A,,Clear,240,2012-11-04 04:35:00
12:55 AM,62.6,42.8,48,30.01,10.0,West,4.6,-,N/A,,Clear,260,2012-11-04 04:55:00
1:15 AM,60.8,42.8,52,30.01,10.0,West,4.6,-,N/A,,Clear,260,2012-11-04 05:15:00
1:35 AM,60.8,42.8,52,30.00,10.0,WSW,3.5,-,N/A,,Clear,250,2012-11-04 05:35:00
1:55 AM,59.0,42.8,55,30.00,10.0,Calm,Calm,-,N/A,,Clear,0,2012-11-04 05:55:00
1:15 AM,60.8,44.6,55,30.00,10.0,Calm,Calm,-,N/A,,Clear,0,2012-11-04 06:15:00
1:35 AM,60.8,42.8,52,30.00,10.0,WNW,3.5,-,N/A,,Scattered Clouds,290,2012-11-04 06:35:00
1:55 AM,60.8,44.6,55,30.01,10.0,West,8.1,-,N/A,,Scattered Clouds,270,2012-11-04 06:55:00
2:15 AM,60.8,44.6,55,30.00,10.0,West,6.9,-,N/A,,Clear,260,2012-11-04 07:15:00
2:35 AM,60.8,44.6,55,29.99,10.0,SW,6.9,-,N/A,,Clear,230,2012-11-04 07:35:00
2:55 AM,60.8,44.6,55,29.98,10.0,WSW,6.9,-,N/A,,Clear,250,2012-11-04 07:55:00
3:15 AM,60.8,44.6,55,29.98,10.0,WSW,4.6,-,N/A,,Clear,250,2012-11-04 08:15:00
3:35 AM,60.8,44.6,55,29.98,10.0,West,3.5,-,N/A,,Clear,280,2012-11-04 08:35:00
3:55 AM,59.0,44.6,59,29.98,10.0,West,3.5,-,N/A,,Clear,280,2012-11-04 08:55:00
4:15 AM,59.0,44.6,59,29.98,10.0,West,4.6,-,N/A,,Clear,280,2012-11-04 09:15:00
4:35 AM,59.0,44.6,59,29.98,10.0,West,5.8,-,N/A,,Clear,260,2012-11-04 09:35:00
4:55 AM,59.0,44.6,59,29.98,10.0,West,5.8,-,N/A,,Clear,260,2012-11-04 09:55:00
5:15 AM,59.0,44.6,59,29.99,10.0,West,5.8,-,N/A,,Clear,270,2012-11-04 10:15:00
5:35 AM,59.0,44.6,59,29.99,10.0,West,3.5,-,N/A,,Clear,270,2012-11-04 10:35:00
5:55 AM,59.0,44.6,59,29.99,10.0,West,3.5,-,N/A,,Clear,270,2012-11-04 10:55:00
6:15 AM,57.2,44.6,63,29.99,10.0,West,3.5,-,N/A,,Clear,270,2012-11-04 11:15:00
6:35 AM,57.2,44.6,63,29.99,10.0,West,4.6,-,N/A,,Clear,280,2012-11-04 11:35:00
7:15 AM,55.4,44.6,67,29.99,10.0,West,3.5,-,N/A,,Clear,260,2012-11-04 12:15:00
7:35 AM,59.0,44.6,59,30.00,10.0,WSW,3.5,-,N/A,,Clear,250,2012-11-04 12:35:00
7:55 AM,59.0,44.6,59,30.00,10.0,West,3.5,-,N/A,,Clear,260,2012-11-04 12:55:00
8:15 AM,59.0,44.6,59,30.00,10.0,WSW,3.5,-,N/A,,Clear,250,2012-11-04 13:15:00
8:35 AM,60.8,44.6,55,30.01,10.0,West,4.6,-,N/A,,Clear,260,2012-11-04 13:35:00
8:55 AM,60.8,44.6,55,30.01,10.0,West,5.8,-,N/A,,Clear,260,2012-11-04 13:55:00
9:15 AM,62.6,44.6,52,30.01,10.0,West,4.6,-,N/A,,Clear,260,2012-11-04 14:15:00
9:35 AM,62.6,44.6,52,30.01,10.0,WSW,6.9,-,N/A,,Clear,250,2012-11-04 14:35:00
9:55 AM,64.4,44.6,49,30.01,10.0,WNW,5.8,-,N/A,,Clear,290,2012-11-04 14:55:00
10:15 AM,64.4,44.6,49,30.00,10.0,West,4.6,-,N/A,,Scattered Clouds,280,2012-11-04 15:15:00
10:35 AM,68.0,44.6,43,30.00,10.0,West,8.1,-,N/A,,Clear,280,2012-11-04 15:35:00
10:55 AM,69.8,42.8,38,30.00,10.0,WNW,12.7,17.3,N/A,,Clear,290,2012-11-04 15:55:00
11:15 AM,69.8,42.8,38,29.99,10.0,WNW,11.5,-,N/A,,Clear,290,2012-11-04 16:15:00
11:35 AM,71.6,42.8,35,29.99,10.0,West,11.5,19.6,N/A,,Clear,280,2012-11-04 16:35:00
11:55 AM,69.8,42.8,38,29.98,10.0,WNW,11.5,-,N/A,,Scattered Clouds,300,2012-11-04 16:55:00
12:15 PM,69.8,42.8,38,29.98,10.0,West,13.8,21.9,N/A,,Clear,280,2012-11-04 17:15:00
12:35 PM,69.8,41.0,35,29.98,10.0,West,11.5,17.3,N/A,,Clear,280,2012-11-04 17:35:00
12:55 PM,69.8,42.8,38,29.98,10.0,West,11.5,19.6,N/A,,Clear,280,2012-11-04 17:55:00
1:15 PM,68.0,42.8,40,29.98,10.0,WNW,11.5,17.3,N/A,,Scattered Clouds,290,2012-11-04 18:15:00
1:35 PM,68.0,41.0,37,29.97,10.0,WNW,13.8,19.6,N/A,,Scattered Clouds,290,2012-11-04 18:35:00
1:55 PM,64.4,42.8,45,29.95,10.0,NW,10.4,-,N/A,,Overcast,320,2012-11-04 18:55:00
2:15 PM,64.4,44.6,49,29.96,10.0,WNW,5.8,-,N/A,Rain,Light Rain,290,2012-11-04 19:15:00
2:35 PM,62.6,46.4,55,29.96,10.0,West,6.9,-,N/A,Rain,Light Rain,280,2012-11-04 19:35:00
2:55 PM,62.6,48.2,59,29.96,10.0,WNW,11.5,-,N/A,,Overcast,300,2012-11-04 19:55:00
3:15 PM,62.6,46.4,55,29.96,10.0,West,8.1,-,N/A,,Mostly Cloudy,280,2012-11-04 20:15:00
3:35 PM,64.4,46.4,52,29.96,10.0,West,10.4,-,N/A,,Scattered Clouds,260,2012-11-04 20:35:00
3:55 PM,64.4,44.6,49,29.96,10.0,West,9.2,-,N/A,,Clear,280,2012-11-04 20:55:00
4:15 PM,64.4,44.6,49,29.96,10.0,WNW,12.7,-,N/A,,Clear,300,2012-11-04 21:15:00
4:35 PM,62.6,42.8,48,29.96,10.0,WNW,11.5,-,N/A,,Clear,290,2012-11-04 21:35:00
4:55 PM,64.4,39.2,40,29.96,10.0,WNW,15.0,20.7,N/A,,Clear,290,2012-11-04 21:55:00
5:15 PM,62.6,39.2,42,29.96,10.0,WNW,9.2,-,N/A,,Clear,290,2012-11-04 22:15:00
5:35 PM,60.8,41.0,48,29.97,10.0,WNW,6.9,-,N/A,,Clear,290,2012-11-04 22:35:00
5:55 PM,60.8,37.4,42,29.97,10.0,WNW,6.9,-,N/A,,Clear,290,2012-11-04 22:55:00
6:15 PM,60.8,35.6,39,29.97,10.0,WNW,8.1,-,N/A,,Clear,290,2012-11-04 23:15:00
6:35 PM,59.0,35.6,42,29.98,10.0,WNW,8.1,-,N/A,,Clear,300,2012-11-04 23:35:00
6:55 PM,59.0,35.6,42,29.98,10.0,West,8.1,-,N/A,,Clear,280,2012-11-04 23:55:00
7:15 PM,55.4,35.6,47,29.98,10.0,NW,6.9,-,N/A,,Clear,310,2012-11-05 00:15:00
7:35 PM,57.2,35.6,44,29.98,10.0,WNW,9.2,-,N/A,,Clear,300,2012-11-05 00:35:00
7:55 PM,55.4,35.6,47,29.98,10.0,WNW,9.2,-,N/A,,Clear,300,2012-11-05 00:55:00
8:15 PM,55.4,35.6,47,29.98,10.0,WNW,6.9,-,N/A,,Clear,290,2012-11-05 01:15:00
8:35 PM,55.4,35.6,47,29.98,10.0,NW,6.9,-,N/A,,Clear,310,2012-11-05 01:35:00
8:55 PM,53.6,35.6,51,29.99,10.0,NW,6.9,-,N/A,,Clear,320,2012-11-05 01:55:00
9:15 PM,53.6,33.8,47,30.00,10.0,NW,9.2,-,N/A,,Clear,310,2012-11-05 02:15:00
9:35 PM,53.6,33.8,47,30.00,10.0,NW,8.1,-,N/A,,Clear,310,2012-11-05 02:35:00
9:55 PM,51.8,33.8,50,30.00,10.0,NW,5.8,-,N/A,,Clear,310,2012-11-05 02:55:00
10:15 PM,50.0,33.8,54,30.00,10.0,WNW,6.9,-,N/A,,Clear,300,2012-11-05 03:15:00
10:35 PM,50.0,32.0,50,29.99,10.0,WNW,8.1,-,N/A,,Clear,300,2012-11-05 03:35:00
10:55 PM,50.0,32.0,50,29.99,10.0,WNW,8.1,-,N/A,,Clear,300,2012-11-05 03:55:00